Meteo pe oră la Allenwil

Astăzi, 23 Ianuarie, Sâmbătă

Timp Temperatura Precipitaţii Vânt Presiune Umiditate
00:00 -1°C° 1.5 mm 5 m/s 697 mmHg 95%
01:00 -1°C° 0.9 mm 4 m/s 698 mmHg 96%
02:00 0°C° 0.9 mm 3 m/s 698 mmHg 96%
03:00 0°C° 0.9 mm 3 m/s 699 mmHg 96%
04:00 -1°C° 0.1 mm 2 m/s 699 mmHg 95%
05:00 -1°C° 0.1 mm 2 m/s 699 mmHg 94%
06:00 -1°C° 0.1 mm 2 m/s 699 mmHg 93%
07:00 -1°C° 0 mm 2 m/s 699 mmHg 91%
08:00 -1°C° 0 mm 2 m/s 699 mmHg 89%
09:00 +1°C° 0 mm 2 m/s 699 mmHg 88%
10:00 +2°C° 0 mm 2 m/s 698 mmHg 86%
11:00 +2°C° 0 mm 2 m/s 698 mmHg 85%
12:00 +3°C° 0 mm 2 m/s 698 mmHg 84%
13:00 +3°C° 0 mm 2 m/s 697 mmHg 85%
14:00 +4°C° 0 mm 1 m/s 697 mmHg 86%
15:00 +4°C° 0 mm 1 m/s 696 mmHg 88%
16:00 +3°C° 0 mm 1 m/s 697 mmHg 89%
17:00 +2°C° 0 mm 1 m/s 697 mmHg 90%
18:00 +1°C° 0 mm 1 m/s 697 mmHg 92%
19:00 +1°C° 0.2 mm 1 m/s 697 mmHg 93%
20:00 +1°C° 0.2 mm 1 m/s 697 mmHg 93%
21:00 +1°C° 0.2 mm 1 m/s 698 mmHg 94%
22:00 -1°C° 0.8 mm 3 m/s 698 mmHg 94%
23:00 -2°C° 0.8 mm 4 m/s 698 mmHg 94%

Mâine, 24 Ianuarie, Duminică

Timp Temperatura Precipitaţii Vânt Presiune Umiditate
00:00 -2°C° 0.8 mm 5 m/s 699 mmHg 94%
01:00 -2°C° 0.3 mm 4 m/s 699 mmHg 94%
02:00 -2°C° 0.3 mm 4 m/s 699 mmHg 94%
03:00 -2°C° 0.3 mm 3 m/s 699 mmHg 93%
04:00 -2°C° 0.2 mm 3 m/s 700 mmHg 93%
05:00 -3°C° 0.2 mm 2 m/s 700 mmHg 93%
06:00 -4°C° 0.2 mm 2 m/s 701 mmHg 93%
07:00 -3°C° 0 mm 2 m/s 701 mmHg 92%
08:00 -1°C° 0 mm 1 m/s 702 mmHg 91%
09:00 0°C° 0 mm 1 m/s 702 mmHg 89%
10:00 +1°C° 0 mm 1 m/s 701 mmHg 87%
11:00 +2°C° 0 mm 1 m/s 701 mmHg 84%
12:00 +1°C° 0 mm 2 m/s 701 mmHg 81%
13:00 +1°C° 0 mm 2 m/s 701 mmHg 83%
14:00 +1°C° 0 mm 2 m/s 700 mmHg 85%
15:00 +1°C° 0 mm 2 m/s 700 mmHg 86%
16:00 +1°C° 0.1 mm 2 m/s 700 mmHg 88%
17:00 -1°C° 0.1 mm 3 m/s 700 mmHg 90%
18:00 -2°C° 0.1 mm 3 m/s 701 mmHg 91%
19:00 -2°C° 0.4 mm 3 m/s 701 mmHg 93%
20:00 -2°C° 0.4 mm 3 m/s 701 mmHg 94%
21:00 -2°C° 0.4 mm 3 m/s 701 mmHg 96%
22:00 -2°C° 0.4 mm 3 m/s 701 mmHg 95%
23:00 -2°C° 0.4 mm 3 m/s 701 mmHg 94%

Poimâine, 25 Ianuarie, Luni

Timp Temperatura Precipitaţii Vânt Presiune Umiditate
00:00 -2°C° 0.4 mm 3 m/s 702 mmHg 94%
01:00 -4°C° 0.4 mm 3 m/s 702 mmHg 93%
02:00 -4°C° 0.4 mm 4 m/s 703 mmHg 92%
03:00 -4°C° 0.4 mm 4 m/s 703 mmHg 91%
04:00 -4°C° 0.2 mm 4 m/s 704 mmHg 91%
05:00 -4°C° 0.2 mm 4 m/s 705 mmHg 92%
06:00 -4°C° 0.2 mm 4 m/s 706 mmHg 93%
07:00 -4°C° 0.3 mm 4 m/s 706 mmHg 91%
08:00 -4°C° 0.3 mm 4 m/s 707 mmHg 90%
09:00 -5°C° 0.3 mm 5 m/s 708 mmHg 89%
10:00 -4°C° 0.1 mm 5 m/s 708 mmHg 86%
11:00 -2°C° 0.1 mm 5 m/s 709 mmHg 83%
12:00 -2°C° 0.1 mm 5 m/s 709 mmHg 80%
13:00 -2°C° 0.2 mm 5 m/s 709 mmHg 83%
14:00 -2°C° 0.2 mm 5 m/s 709 mmHg 86%
15:00 -2°C° 0.2 mm 5 m/s 709 mmHg 89%
16:00 -4°C° 0.2 mm 5 m/s 710 mmHg 90%
17:00 -3°C° 0.2 mm 4 m/s 710 mmHg 91%
18:00 -3°C° 0.2 mm 4 m/s 711 mmHg 91%
19:00 -3°C° 0.3 mm 4 m/s 711 mmHg 92%
20:00 -3°C° 0.3 mm 4 m/s 711 mmHg 93%
21:00 -3°C° 0.3 mm 4 m/s 712 mmHg 94%
22:00 -4°C° 0.3 mm 3 m/s 712 mmHg 94%
23:00 -4°C° 0.3 mm 3 m/s 712 mmHg 94%

26 Ianuarie, Marţi

Timp Temperatura Precipitaţii Vânt Presiune Umiditate
00:00 -4°C° 0.3 mm 3 m/s 712 mmHg 93%
01:00 -4°C° 0.2 mm 3 m/s 712 mmHg 93%
02:00 -4°C° 0.2 mm 3 m/s 712 mmHg 93%
03:00 -4°C° 0.2 mm 3 m/s 713 mmHg 93%
04:00 -4°C° 0.2 mm 3 m/s 713 mmHg 93%
05:00 -3°C° 0.2 mm 2 m/s 713 mmHg 94%
06:00 -3°C° 0.2 mm 2 m/s 713 mmHg 94%
07:00 -3°C° 0.1 mm 2 m/s 713 mmHg 93%
08:00 -2°C° 0.1 mm 2 m/s 714 mmHg 93%
09:00 -2°C° 0.1 mm 3 m/s 714 mmHg 93%
10:00 -1°C° 0.1 mm 3 m/s 714 mmHg 91%
11:00 0°C° 0.1 mm 3 m/s 714 mmHg 90%
12:00 +1°C° 0.1 mm 3 m/s 714 mmHg 89%
13:00 +2°C° 0 mm 2 m/s 713 mmHg 89%
14:00 +2°C° 0 mm 2 m/s 713 mmHg 90%
15:00 +1°C° 0 mm 2 m/s 713 mmHg 90%
16:00 +1°C° 0 mm 2 m/s 713 mmHg 90%
17:00 +1°C° 0 mm 2 m/s 713 mmHg 90%
18:00 +1°C° 0 mm 1 m/s 713 mmHg 90%
19:00 -1°C° 0.2 mm 2 m/s 713 mmHg 91%
20:00 -1°C° 0.2 mm 2 m/s 713 mmHg 93%
21:00 -1°C° 0.2 mm 3 m/s 713 mmHg 94%
22:00 -1°C° 0.1 mm 3 m/s 712 mmHg 94%
23:00 -2°C° 0.1 mm 4 m/s 712 mmHg 94%

27 Ianuarie, Miercuri

Timp Temperatura Precipitaţii Vânt Presiune Umiditate
00:00 -1°C° 0.1 mm 4 m/s 712 mmHg 94%
01:00 -1°C° 0.1 mm 4 m/s 711 mmHg 95%
02:00 0°C° 0.1 mm 4 m/s 711 mmHg 96%
03:00 +1°C° 0.1 mm 4 m/s 711 mmHg 97%
04:00 +1°C° 0.1 mm 4 m/s 711 mmHg 97%
05:00 +1°C° 0.1 mm 5 m/s 711 mmHg 97%
06:00 +2°C° 0.1 mm 5 m/s 711 mmHg 97%
07:00 +3°C° 0.2 mm 4 m/s 712 mmHg 97%
08:00 +3°C° 0.2 mm 4 m/s 713 mmHg 98%
09:00 +3°C° 0.2 mm 3 m/s 713 mmHg 98%
10:00 +3°C° 0.1 mm 3 m/s 713 mmHg 97%
11:00 +3°C° 0.1 mm 4 m/s 714 mmHg 96%
12:00 +4°C° 0.1 mm 4 m/s 714 mmHg 95%
13:00 +4°C° 0.1 mm 3 m/s 714 mmHg 94%
14:00 +3°C° 0.1 mm 3 m/s 714 mmHg 94%
15:00 +3°C° 0.1 mm 3 m/s 715 mmHg 93%
16:00 +3°C° 0 mm 2 m/s 715 mmHg 93%
17:00 +2°C° 0 mm 2 m/s 715 mmHg 92%
18:00 +1°C° 0 mm 2 m/s 716 mmHg 92%
19:00 +1°C° 0 mm 2 m/s 716 mmHg 91%
20:00 +1°C° 0 mm 2 m/s 715 mmHg 90%
21:00 +2°C° 0 mm 1 m/s 715 mmHg 89%
22:00 +2°C° 0 mm 1 m/s 715 mmHg 87%
23:00 +2°C° 0 mm 1 m/s 714 mmHg 86%

28 Ianuarie, Joi

Timp Temperatura Precipitaţii Vânt Presiune Umiditate
00:00 +2°C° 0 mm 1 m/s 714 mmHg 85%
01:00 +1°C° 0 mm 2 m/s 713 mmHg 84%
02:00 +2°C° 0 mm 2 m/s 713 mmHg 84%
03:00 +3°C° 0 mm 2 m/s 713 mmHg 83%
04:00 +2°C° 0.4 mm 3 m/s 713 mmHg 86%
05:00 +2°C° 0.4 mm 3 m/s 713 mmHg 89%
06:00 +1°C° 0.4 mm 4 m/s 712 mmHg 91%
07:00 +3°C° 0.1 mm 4 m/s 712 mmHg 92%
08:00 +3°C° 0.1 mm 4 m/s 712 mmHg 93%
09:00 +4°C° 0.1 mm 4 m/s 712 mmHg 94%
10:00 +4°C° 0 mm 4 m/s 712 mmHg 93%
11:00 +5°C° 0 mm 5 m/s 712 mmHg 92%
12:00 +6°C° 0 mm 5 m/s 711 mmHg 90%
13:00 +6°C° 0.5 mm 5 m/s 711 mmHg 91%
14:00 +5°C° 0.5 mm 5 m/s 711 mmHg 92%
15:00 +4°C° 0.5 mm 6 m/s 710 mmHg 92%
16:00 +5°C° 2.3 mm 5 m/s 711 mmHg 93%
17:00 +3°C° 2.3 mm 5 m/s 711 mmHg 94%
18:00 +3°C° 2.3 mm 5 m/s 712 mmHg 94%
Arată mai mult

Formular de consimțământ

Meteoprog și furnizorii noștri de servicii pot stoca și accesa date personale, precum cookies, identificatori de dispozitiv sau alte tehnologii similare pe dispozitivul dumneavoastră și procesa astfel de date pentru a personaliza conținutul și reclamele, dar și pentru a oferi caracteristici de social media și pentru a analiza traficul.

  • Stocarea și/sau accesarea informațiilor pe dispozitivul dumneavoastră

    Cookies, identificatori de dispozitiv sau alte informații pot fi stocate sau accesate pe dispozitiv în scopurile indicate mai sus.

  • Reclame și conținut personalizat, evaluarea reclamelor și a conținutului, informații despre audiențe și dezvoltarea produselor

    Reclamele și conținutul pot fi personalizate pe baza unui profil. Pot fi adăugate date suplimentare pentru a personaliza mai bine reclamele și conținutul. Performanța reclamelor și conținutului poate fi măsurată. Pot fi obținute informații despre utilizatorii care au văzut reclamele și conținutul. Aceste date pot fi utilizate pentru a dezvolta sau îmbunătăți experiența utilizatorilor, sistemele și software-ul.

Dând clic pe ‘Sunt de acord’, permiteți utilizarea cookie-urilor menționate, a identificatorilor de dispozitiv, balizelor web sau altor tehnologii similare. Setările pot fi modificate din browser-ul dispozitivului dumneavoastră.

În anumite scopuri, interesele legitime pot prima asupra consimțământului. Puteți citi mai multe informații în acest sens în Politica privind Confidențialitatea Datelor și Cookie.